Barnwell, SC

1:37 PM EST on November 15, 2019 (GMT -0500)
Barnwell County

Weather History for KBNL - September, 2019

Change the Weather History Date:

Monday, September 2, 2019

  Actual Average (KOGB) Record (KOGB)
Temperature  
Mean Temperature 80 °F 78 °F  
Max Temperature 89 °F 88 °F 99 °F (1957)
Min Temperature 71 °F 68 °F 54 °F (1967)
Degree Days  
Heating Degree Days 0 0  
Month to date heating degree days 0  
Since 1 July heating degree days 0  
Cooling Degree Days 15 13  
Month to date cooling degree days 26  
Year to date cooling degree days 1719  
Growing Degree Days 30 (Base 50)    
Moisture  
Dew Point 72 °F    
Average Humidity 82    
Maximum Humidity 100    
Minimum Humidity 55    
Precipitation  
Precipitation 0.00 in 0.15 in 5.84 in (2016)
Month to date precipitation 0.30  
Year to date precipitation 33.61  
Sea Level Pressure  
Sea Level Pressure 30.01 in    
Wind  
Wind Speed 6 mph (NE)    
Max Wind Speed 14 mph    
Max Gust Speed 20 mph    
Visibility 9 miles    
Events      
T = Trace of Precipitation, MM = Missing Value Source: NWS Daily Summary

Daily Weather History Graph

Daily Weather History Graph

Search for Another Location

Airport or City:

Astronomy

Sep. 02, 2019 Rise Set
Actual Time 7:00 AM EDT 7:49 PM EDT
Civil Twilight 6:35 AM EDT 8:14 PM EDT
Nautical Twilight 6:05 AM EDT 8:44 PM EDT
Astronomical Twilight 5:34 AM EDT 9:15 PM EDT
Moon 10:31 AM EDT (9/2) 10:22 PM EDT (9/2)
Length of Visible Light 13h 39m
Length of Day
12h 49m
Waxing Crescent, 15% of the Moon is Illuminated
Sep 2
Waxing Crescent
Sep 5
First Quarter
Sep 14
Full
Sep 21
Last Quarter
Sep 28
New

Hourly Weather History & Observations

Time (EDT) Temp. Heat Index Dew Point Humidity Pressure Visibility Wind Dir Wind Speed Gust Speed Precip Events Conditions
12:15 AM 73.4 °F - 71.6 °F 94% 30.08 in 10.0 mi NE 4.6 mph - N/A   Partly Cloudy
12:55 AM 73.4 °F - 71.6 °F 94% 30.06 in 10.0 mi NE 4.6 mph - N/A   Mostly Cloudy
1:15 AM 73.4 °F - 71.6 °F 94% 30.06 in 10.0 mi NNE 4.6 mph - N/A   Scattered Clouds
1:35 AM 73.4 °F - 71.6 °F 94% 30.06 in 10.0 mi NNE 5.8 mph - N/A   Clear
1:55 AM 73.4 °F - 71.6 °F 94% 30.05 in 10.0 mi NNE 5.8 mph - N/A   Clear
2:15 AM 73.4 °F - 71.6 °F 94% 30.05 in 10.0 mi NE 4.6 mph - N/A   Clear
2:35 AM 73.4 °F - 71.6 °F 94% 30.04 in 10.0 mi NE 5.8 mph - N/A   Clear
2:55 AM 71.6 °F - 71.6 °F 100% 30.03 in 10.0 mi NNE 4.6 mph - N/A   Partly Cloudy
3:55 AM 71.6 °F - 71.6 °F 100% 30.02 in 10.0 mi North 5.8 mph - N/A   Mostly Cloudy
4:15 AM 73.4 °F - 71.6 °F 94% 30.02 in 10.0 mi North 6.9 mph - N/A   Mostly Cloudy
4:35 AM 73.4 °F - 71.6 °F 94% 30.01 in 10.0 mi NNE 6.9 mph - N/A   Overcast
5:15 AM 73.4 °F - 71.6 °F 94% 30.02 in 10.0 mi NNE 6.9 mph - N/A   Overcast
5:35 AM 73.4 °F - 71.6 °F 94% 30.02 in 10.0 mi NNE 5.8 mph - N/A   Overcast
5:55 AM 73.4 °F - 71.6 °F 94% 30.02 in 9.0 mi North 8.1 mph - N/A   Overcast
6:15 AM 71.6 °F - 71.6 °F 100% 30.03 in 8.0 mi NNE 8.1 mph - N/A   Overcast
6:35 AM 73.4 °F - 71.6 °F 94% 30.03 in 7.0 mi NE 6.9 mph - N/A   Overcast
6:55 AM 73.4 °F - 71.6 °F 94% 30.03 in 6.0 mi NNE 5.8 mph - N/A   Overcast
7:15 AM 73.4 °F - 71.6 °F 94% 30.04 in 4.0 mi NNE 8.1 mph - N/A   Overcast
7:35 AM 73.4 °F - 71.6 °F 94% 30.04 in 3.0 mi NNE 6.9 mph - N/A   Overcast
7:55 AM 73.4 °F - 71.6 °F 94% 30.05 in 1.8 mi NNE 8.1 mph - N/A   Overcast
8:15 AM 73.4 °F - 71.6 °F 94% 30.05 in 1.8 mi NNE 5.8 mph - N/A   Overcast
8:35 AM 73.4 °F - 71.6 °F 94% 30.05 in 3.0 mi NNE 10.4 mph - N/A   Overcast
8:55 AM 73.4 °F - 73.4 °F 100% 30.05 in 6.0 mi NE 8.1 mph - N/A   Overcast
9:15 AM 73.4 °F - 73.4 °F 100% 30.05 in 8.0 mi NNE 6.9 mph - N/A   Overcast
9:35 AM 73.4 °F - 73.4 °F 100% 30.05 in 8.0 mi NNE 8.1 mph - N/A   Overcast
9:55 AM 75.2 °F - 73.4 °F 94% 30.05 in 10.0 mi NNE 10.4 mph - N/A   Overcast
10:35 AM 77.0 °F - 73.4 °F 89% 30.05 in 10.0 mi NNE 8.1 mph - N/A   Overcast
10:55 AM 78.8 °F - 73.4 °F 83% 30.05 in 10.0 mi NNE 9.2 mph - N/A   Overcast
11:15 AM 78.8 °F - 73.4 °F 83% 30.06 in 10.0 mi NNE 11.5 mph - N/A   Overcast
11:35 AM 78.8 °F - 73.4 °F 83% 30.06 in 10.0 mi NNE 11.5 mph - N/A   Overcast
11:55 AM 80.6 °F 85.4 °F 73.4 °F 79% 30.06 in 10.0 mi NE 9.2 mph - N/A   Overcast
12:15 PM 80.6 °F 85.4 °F 73.4 °F 79% 30.06 in 10.0 mi NE 12.7 mph 19.6 mph N/A   Overcast
12:35 PM 82.4 °F 88.2 °F 73.4 °F 74% 30.05 in 10.0 mi NNE 13.8 mph - N/A   Mostly Cloudy
12:55 PM 82.4 °F 88.2 °F 73.4 °F 74% 30.05 in 10.0 mi NE 10.4 mph - N/A   Overcast
1:15 PM 84.2 °F 90.9 °F 73.4 °F 70% 30.04 in 10.0 mi NNE 12.7 mph - N/A   Scattered Clouds
1:35 PM 82.4 °F 88.2 °F 73.4 °F 74% 30.04 in 10.0 mi NE 10.4 mph - N/A   Mostly Cloudy
1:55 PM 84.2 °F 90.9 °F 73.4 °F 70% 30.02 in 10.0 mi NNE 8.1 mph - N/A   Mostly Cloudy
2:15 PM 87.8 °F 95.6 °F 73.4 °F 62% 30.01 in 10.0 mi NE 10.4 mph - N/A   Mostly Cloudy
2:35 PM 86.0 °F 93.4 °F 73.4 °F 66% 30.00 in 10.0 mi NNE 5.8 mph 13.8 mph N/A   Mostly Cloudy
2:55 PM 87.8 °F 95.6 °F 73.4 °F 62% 29.99 in 10.0 mi North 9.2 mph - N/A   Scattered Clouds
3:15 PM 87.8 °F 95.6 °F 73.4 °F 62% 29.98 in 10.0 mi NNE 6.9 mph 16.1 mph N/A   Partly Cloudy
3:35 PM 89.6 °F 96.2 °F 71.6 °F 55% 29.97 in 10.0 mi NE 9.2 mph - N/A   Scattered Clouds
3:55 PM 87.8 °F 95.6 °F 73.4 °F 62% 29.96 in 10.0 mi Variable 5.8 mph 13.8 mph N/A   Mostly Cloudy
4:15 PM 89.6 °F 96.2 °F 71.6 °F 55% 29.95 in 10.0 mi ENE 5.8 mph 11.5 mph N/A   Scattered Clouds
4:35 PM 87.8 °F 93.8 °F 71.6 °F 58% 29.95 in 10.0 mi NNE 10.4 mph - N/A   Partly Cloudy
4:55 PM 89.6 °F 96.2 °F 71.6 °F 55% 29.94 in 10.0 mi NNE 8.1 mph - N/A   Clear
5:15 PM 87.8 °F 93.8 °F 71.6 °F 58% 29.94 in 10.0 mi NNE 6.9 mph - N/A   Mostly Cloudy
5:35 PM 89.6 °F 96.2 °F 71.6 °F 55% 29.94 in 10.0 mi NE 6.9 mph - N/A   Scattered Clouds
5:55 PM 87.8 °F 93.8 °F 71.6 °F 58% 29.95 in 10.0 mi NNE 6.9 mph - N/A   Scattered Clouds
6:15 PM 89.6 °F 96.2 °F 71.6 °F 55% 29.95 in 10.0 mi NE 6.9 mph - N/A   Scattered Clouds
6:35 PM 87.8 °F 95.6 °F 73.4 °F 62% 29.95 in 10.0 mi East 6.9 mph - N/A   Mostly Cloudy
6:55 PM 86.0 °F 91.8 °F 71.6 °F 62% 29.96 in 10.0 mi ESE 9.2 mph 16.1 mph N/A   Scattered Clouds
7:15 PM 82.4 °F 88.2 °F 73.4 °F 74% 29.97 in 10.0 mi ESE 10.4 mph - N/A   Partly Cloudy
7:35 PM 80.6 °F 84.6 °F 71.6 °F 74% 29.97 in 10.0 mi SE 6.9 mph 13.8 mph N/A   Clear
7:55 PM 78.8 °F - 71.6 °F 78% 29.97 in 10.0 mi SE 6.9 mph - N/A   Clear
8:35 PM 77.0 °F - 71.6 °F 83% 29.97 in 10.0 mi Calm Calm - N/A   Clear
8:55 PM 77.0 °F - 71.6 °F 83% 29.97 in 10.0 mi Calm Calm - N/A   Clear
9:15 PM 77.0 °F - 71.6 °F 83% 29.98 in 10.0 mi SSE 3.5 mph - N/A   Clear
10:15 PM 75.2 °F - 71.6 °F 89% 29.99 in 10.0 mi Calm Calm - N/A   Scattered Clouds
10:35 PM 73.4 °F - 71.6 °F 94% 29.99 in 10.0 mi Calm Calm - N/A   Partly Cloudy
10:55 PM 71.6 °F - 71.6 °F 100% 29.99 in 10.0 mi Calm Calm - N/A   Clear
11:15 PM 73.4 °F - 71.6 °F 94% 29.99 in 10.0 mi Calm Calm - N/A   Clear
11:35 PM 71.6 °F - 71.6 °F 100% 29.99 in 10.0 mi Calm Calm - N/A   Clear
11:55 PM 71.6 °F - 69.8 °F 94% 29.98 in 10.0 mi Calm Calm - N/A   Clear